Dewpoint
73 74 74 74 74 74 75 75 74 74 75 75 75 74 74 75 75 75 74 73 72 68 66 65 67 68 66 66 67 68 69 71 72 72 73 73 73 75 75 74 74 74 73 74 73 73 73 73 73 73 73 73 73 73 73 73 73 73 72 72 72 72 72 72 73 72 72 73 72 72 72 72 71 71 71 71 70 71 70 71 70 71 70 70 71
73 74 74 74 74 73 74 75 75 75 75 74 75 76 75 75 75 75 73 73 68 66 65 64 65 66 65 64 66 67 69 70 71 72 73 73 73 75 74 74 74 74 74 73 73 73 73 73 73 73 72 73 72 73 73 73 73 73 72 72 72 72 72 72 73 72 72 72 72 72 72 71 71 71 71 71 71 71 71 71 71 71 71 71 71
73 74 74 74 73 73 74 74 73 74 74 75 76 75 75 75 75 75 70 74 72 71 69 65 64 65 66 65 66 67 68 69 69 71 72 72 73 74 74 74 74 74 74 74 73 73 73 73 73 73 73 73 73 73 73 73 73 72 72 72 72 72 72 73 72 72 73 73 72 72 72 72 72 72 72 72 72 71 71 71 72 72 71 71 71
72 74 74 73 73 73 75 74 74 74 74 74 75 75 75 76 77 77 76 75 74 74 71 65 65 64 66 65 66 66 67 68 68 70 70 72 73 74 74 74 75 74 74 74 74 73 73 74 73 73 73 73 73 73 72 72 73 72 73 73 73 73 73 73 73 73 73 73 73 73 73 73 73 72 73 73 72 72 72 72 72 72 72 72 72
72 73 75 73 73 74 74 74 73 73 74 74 74 74 75 76 77 76 75 76 73 71 74 69 66 65 65 64 65 66 66 67 68 68 69 71 72 73 74 75 74 75 75 75 74 74 74 74 74 74 74 73 73 73 73 73 73 73 73 73 73 73 73 73 73 73 73 73 73 73 73 73 73 73 73 73 73 73 73 73 73 73 72 72 72
73 74 74 73 73 73 73 74 73 73 74 75 74 75 76 74 74 75 75 74 71 72 70 70 66 67 66 65 66 66 66 65 67 68 68 69 71 72 73 73 74 74 74 75 75 75 75 75 74 74 74 74 74 74 74 74 74 74 74 74 74 74 74 74 74 74 74 74 74 74 74 74 74 74 74 74 74 74 74 74 73 73 73 73 72
74 74 74 73 73 72 73 73 73 73 73 74 75 75 76 75 75 74 72 71 72 72 71 70 67 66 65 67 67 67 66 64 66 68 70 70 70 71 71 72 73 74 74 74 76 75 75 75 75 75 75 75 75 75 75 75 74 74 74 74 74 74 74 74 74 74 74 75 75 75 75 75 75 75 74 74 74 74 74 74 74 74 74 74 74
74 74 72 73 74 71 71 72 74 74 75 77 77 75 75 75 76 74 71 70 71 69 71 71 66 68 70 70 68 70 64 65 64 66 69 70 71 71 71 72 73 73 75 74 74 75 76 75 75 76 76 75 76 75 75 75 75 75 75 75 75 75 75 75 75 75 75 75 75 75 75 75 75 75 75 75 75 75 75 75 75 75 75 75 74
74 74 73 72 73 73 72 75 75 75 76 77 76 77 76 75 73 76 75 74 70 68 68 70 67 65 65 65 66 71 68 66 67 64 67 70 71 71 72 73 73 76 74 73 74 74 76 76 76 76 76 76 76 76 76 75 75 75 75 75 75 75 75 75 75 75 75 75 75 75 75 75 75 75 76 76 76 76 76 76 76 76 75 75 75
73 74 73 72 72 73 75 75 77 78 78 77 77 76 76 77 76 77 76 74 71 69 67 67 65 67 67 65 68 67 67 68 69 72 66 67 69 70 71 73 74 74 74 73 73 73 74 76 77 76 76 76 76 76 76 76 75 75 75 75 75 75 75 75 76 75 75 76 76 76 76 76 76 76 76 76 76 76 77 76 76 76 76 76 76
74 74 74 73 73 74 75 76 77 77 77 76 74 75 76 75 75 73 77 75 72 71 67 69 67 65 64 67 69 67 70 67 71 69 67 65 65 67 68 70 73 74 74 73 73 73 73 73 74 75 76 77 77 76 76 76 76 76 76 75 75 76 76 76 76 76 76 76 76 76 76 76 77 77 77 77 77 77 77 77 77 77 76 76 76
74 75 76 76 75 75 76 76 76 76 76 73 75 74 73 74 75 72 74 75 76 73 71 69 66 65 67 65 67 70 67 68 68 68 67 63 66 66 63 64 67 71 73 73 73 72 72 71 74 73 74 75 76 77 77 77 77 77 76 76 76 76 76 76 76 76 77 77 76 77 77 77 77 77 77 77 77 77 77 77 77 77 77 77 77
77 77 77 78 76 76 76 76 76 76 75 75 76 76 76 76 76 77 73 74 74 72 68 66 64 63 67 65 65 68 69 69 65 65 64 63 64 65 63 64 63 65 69 72 73 72 71 72 72 72 73 73 74 77 77 78 77 77 78 77 77 77 76 76 77 76 77 77 77 77 77 77 78 78 78 77 77 77 77 77 77 77 77 77 77
77 76 77 77 76 76 76 76 76 75 75 76 76 77 76 74 73 72 74 74 74 71 72 72 67 62 63 64 64 64 69 70 64 63 61 61 62 64 64 61 62 64 65 71 72 71 72 73 74 73 73 74 73 72 73 76 77 78 78 78 78 78 78 78 78 78 78 78 78 78 78 78 78 78 78 78 77 77 77 77 77 77 77 77 77
77 77 76 77 77 76 75 76 77 76 76 75 75 75 74 75 75 74 73 73 76 73 69 69 67 66 69 64 62 63 64 67 66 64 59 58 60 61 62 60 61 61 63 67 69 70 71 71 73 74 74 75 74 72 72 75 75 76 77 77 78 78 78 77 78 78 78 78 78 78 77 78 78 77 77 77 77 77 77 77 77 77 77 77 77
76 76 76 77 76 76 77 77 78 78 76 75 75 75 75 75 74 75 75 71 68 69 72 71 68 66 59 63 61 63 61 62 63 65 60 57 57 58 60 58 58 60 63 61 64 67 68 70 71 73 74 75 75 74 74 74 75 78 79 79 77 76 78 78 78 77 77 77 77 77 77 77 77 77 77 77 77 78 77 77 77 77 77 77 77
76 76 76 76 77 77 76 76 77 77 76 77 75 74 74 74 75 76 73 73 71 71 72 69 68 71 72 67 61 62 63 63 62 66 67 61 58 55 62 57 58 61 62 61 64 68 67 67 70 71 70 71 73 75 76 76 77 79 79 81 79 76 76 77 77 77 77 76 76 77 77 77 77 77 77 77 77 77 77 77 77 76 76 76 76
75 76 76 77 76 76 77 76 76 77 77 77 76 75 74 73 74 73 74 75 73 73 74 71 68 73 73 70 66 63 63 64 62 56 68 70 59 58 59 56 59 64 65 64 64 65 67 66 69 69 71 72 72 72 71 73 78 77 78 77 80 79 77 77 78 77 75 75 76 76 77 77 77 77 77 77 77 77 76 76 76 76 76 76 75
74 75 77 77 76 76 77 76 76 77 78 76 77 74 73 73 75 75 74 77 75 72 72 71 74 75 71 68 71 70 70 66 60 67 58 64 68 54 56 56 59 63 60 60 61 62 67 68 69 68 71 71 71 71 71 72 77 76 77 80 79 79 78 78 78 76 75 75 76 77 77 77 77 77 77 77 76 76 76 76 76 76 76 75 75
74 76 76 77 77 77 77 77 76 75 77 76 74 74 75 76 77 77 76 76 75 73 73 74 70 72 75 69 71 72 67 66 66 63 63 61 63 62 58 54 57 58 60 58 59 63 66 69 69 69 70 70 72 72 72 73 73 75 76 76 78 79 77 76 76 76 75 76 77 77 77 77 77 77 76 76 76 76 76 76 76 75 74 74 73
75 75 76 76 77 76 76 75 75 74 78 75 75 76 75 75 76 76 75 76 75 75 75 74 73 71 72 71 73 71 69 67 63 65 68 63 66 58 58 60 58 58 59 57 60 62 64 66 67 69 71 71 71 70 73 77 76 74 76 77 78 76 77 76 75 76 76 76 77 77 77 77 77 76 76 76 76 76 76 75 74 74 73 73 72
75 76 76 76 77 77 76 75 74 76 75 74 74 74 75 75 75 75 76 76 77 77 75 75 75 75 72 73 71 71 71 72 65 65 65 65 61 61 61 58 56 59 66 60 60 59 60 61 70 69 69 68 71 73 75 75 73 73 74 76 76 77 77 76 75 76 76 75 76 76 76 77 76 76 76 76 75 75 74 74 73 73 72 71 70
75 75 76 76 76 77 75 75 75 76 75 75 74 74 75 75 76 77 76 76 77 76 76 78 75 74 74 74 71 70 68 69 64 66 66 64 65 66 64 62 58 59 61 62 62 61 65 65 61 66 70 73 75 74 71 71 74 74 74 75 75 77 76 76 76 75 75 75 75 75 76 77 76 76 76 75 75 74 74 73 72 72 70 69 68
74 75 75 75 77 76 76 76 76 75 74 75 76 74 74 75 75 76 75 76 76 76 75 75 76 75 74 72 71 70 71 68 69 71 67 67 64 64 64 65 66 64 65 62 62 59 62 64 66 69 70 72 73 75 76 74 74 76 75 75 75 76 78 76 76 75 75 74 74 74 76 76 75 75 75 74 74 73 73 72 71 70 68 67 66
74 73 74 73 76 75 75 75 76 76 76 76 75 76 75 76 76 76 76 75 76 76 75 76 75 75 70 70 71 68 67 65 69 68 71 71 67 65 67 63 63 64 64 60 54 63 63 67 68 69 71 74 75 78 76 73 71 76 77 75 74 76 76 77 76 75 74 73 74 74 75 75 75 75 74 74 73 72 71 71 70 68 67 66 66
73 73 72 73 75 76 76 75 76 77 77 76 76 76 76 76 77 74 75 77 76 76 76 76 75 75 74 72 72 70 68 68 67 68 67 66 64 64 67 69 66 67 67 65 67 61 63 69 68 70 71 73 73 74 76 72 73 76 77 75 73 74 75 76 77 76 75 74 74 74 75 75 75 74 74 73 72 71 70 70 69 67 66 66 65
73 73 73 73 74 76 75 76 77 77 77 76 77 76 76 76 77 76 75 77 76 76 76 75 74 74 73 73 73 71 70 72 70 69 69 68 64 69 69 64 65 69 68 68 69 60 63 67 67 69 72 73 74 78 75 73 73 74 76 75 73 74 74 75 76 76 75 74 74 74 75 75 74 74 74 73 71 70 69 69 67 66 65 65 65
75 74 73 74 73 75 76 77 77 78 77 76 77 76 77 76 75 75 75 76 75 76 76 75 74 74 73 75 73 71 73 73 72 72 72 72 72 72 71 67 65 64 68 68 66 61 62 66 69 72 73 72 76 79 79 72 70 74 77 76 74 73 73 74 75 75 74 73 73 74 74 74 74 74 73 73 71 69 68 68 67 66 65 64 64
73 75 75 74 74 74 75 76 77 77 77 77 77 77 76 76 75 74 75 75 75 76 77 75 75 73 74 72 74 74 74 75 74 75 77 76 75 76 73 73 69 66 66 66 67 67 71 65 68 68 76 76 74 74 75 73 71 71 73 77 75 73 73 72 74 74 73 73 73 73 73 73 73 73 73 73 71 70 69 67 67 66 64 63 64
71 72 74 75 74 76 74 76 77 76 76 76 76 77 76 76 76 75 76 75 75 76 77 75 75 75 76 76 73 74 75 74 74 72 75 77 73 74 72 74 73 69 68 66 66 70 69 68 67 69 72 74 75 75 76 75 75 72 74 74 77 75 72 71 73 72 72 72 72 72 73 73 73 73 73 72 70 69 68 67 66 65 64 62 62
72 72 73 73 75 75 74 75 75 75 75 75 77 77 76 75 76 76 76 76 75 76 77 76 75 75 74 73 75 75 75 74 73 75 77 75 76 74 76 75 70 69 70 69 65 69 72 69 70 70 71 73 74 72 73 75 75 73 74 75 76 76 73 72 72 72 71 71 71 71 72 72 72 71 71 71 70 69 67 66 65 64 63 63 62
71 73 72 71 74 74 74 74 73 74 74 75 76 76 76 75 74 76 75 76 75 76 76 76 75 75 74 73 74 74 75 77 74 73 74 75 76 73 73 76 74 73 73 70 66 68 72 71 71 71 70 70 73 71 70 76 75 75 75 76 76 76 74 73 72 72 71 71 70 70 70 70 68 69 70 69 69 67 66 65 65 63 63 62 62
69 72 72 71 73 73 73 73 72 73 74 74 75 76 75 74 74 75 74 75 75 74 75 74 74 73 74 73 74 75 76 75 75 75 73 73 75 74 75 74 73 73 70 69 67 68 71 73 73 73 72 71 70 73 73 74 73 75 75 75 77 76 74 74 74 71 70 70 70 69 69 68 67 68 69 69 69 68 67 65 63 62 62 61 61
68 69 71 71 72 72 71 71 72 72 73 73 73 75 75 74 74 74 74 74 75 74 74 74 74 73 73 73 73 75 75 74 74 73 73 73 73 73 72 71 71 72 73 71 70 69 68 71 71 73 73 73 70 73 70 71 71 74 74 74 75 75 73 75 75 73 70 70 69 68 68 67 66 67 68 68 68 68 66 65 64 62 61 60 60
68 68 69 70 72 72 71 71 71 72 73 72 72 73 74 74 74 73 73 74 75 74 74 74 73 73 73 74 73 74 75 74 74 72 72 70 70 71 71 71 71 71 73 72 71 70 70 71 73 73 72 74 73 72 74 74 74 74 73 74 73 73 73 75 75 74 70 69 69 68 67 66 66 66 67 67 67 67 66 65 64 62 61 59 59
67 68 68 68 71 72 71 71 71 71 72 72 72 71 73 73 73 73 72 73 74 74 74 74 74 73 72 72 71 72 72 72 72 71 71 70 69 70 71 72 71 71 71 73 72 69 70 69 72 72 73 73 74 74 74 74 73 73 74 74 75 75 74 74 74 75 72 69 69 68 67 66 65 65 66 65 65 64 64 63 62 61 60 61 60
64 66 69 68 69 72 71 71 71 70 71 72 71 70 72 73 73 72 72 74 73 73 73 73 75 73 72 71 71 72 72 71 72 71 71 70 70 71 71 71 72 72 72 73 73 72 71 71 71 73 74 73 74 74 74 73 72 72 73 72 73 74 75 76 76 74 71 69 69 68 66 66 66 65 65 64 64 62 62 62 61 60 60 59 58
64 64 65 68 68 70 71 70 72 71 71 72 71 70 69 71 73 72 71 72 73 73 72 72 73 72 71 71 72 71 70 70 70 71 71 69 69 69 68 69 72 72 71 71 71 72 71 71 71 72 72 74 72 72 73 74 73 73 73 74 74 73 72 72 73 72 70 70 69 68 67 66 65 64 65 64 63 61 61 60 60 59 59 58 56
63 62 63 65 69 69 70 70 70 72 71 72 72 71 70 69 70 71 71 71 71 72 72 72 72 72 72 71 71 71 71 70 69 69 70 70 71 70 70 68 68 71 71 72 73 71 71 71 71 72 71 72 72 71 72 73 73 73 72 71 71 73 74 73 73 74 71 70 70 69 68 67 66 65 63 62 62 61 60 59 59 59 58 57 55
63 62 62 63 66 69 69 69 69 71 71 71 71 72 72 71 70 70 70 70 71 71 70 71 71 70 70 70 70 71 71 71 71 70 70 70 70 69 69 71 72 69 68 68 69 71 71 71 70 70 71 71 71 73 74 72 69 69 72 73 71 71 71 72 74 73 73 71 71 69 68 67 66 65 63 62 62 61 60 60 60 61 61 58 57
63 62 61 62 63 67 68 68 68 69 70 71 70 71 72 71 71 71 70 69 70 70 70 70 70 70 69 69 69 68 71 76 74 74 73 73 71 69 68 69 70 70 70 70 70 70 70 71 70 71 70 70 71 71 70 69 68 67 67 70 71 71 71 72 73 75 74 72 72 70 69 67 66 65 64 62 62 62 61 61 61 63 61 58 57
65 64 62 61 62 63 66 68 67 68 69 70 71 69 71 72 71 70 71 70 69 70 70 70 69 69 69 68 68 74 75 77 75 73 72 74 75 72 70 70 70 70 70 70 70 70 69 69 69 69 69 69 69 69 69 68 69 69 69 69 70 71 70 70 70 71 74 74 71 70 70 69 67 66 64 63 62 64 60 59 57 58 59 58 58
69 67 64 61 60 62 63 65 67 66 67 68 68 65 66 69 72 71 70 70 70 70 69 70 69 68 68 68 67 71 76 78 75 72 72 71 71 73 74 75 74 71 70 71 71 72 71 71 71 70 69 69 69 69 68 67 67 66 66 69 70 70 69 68 68 70 74 74 71 70 70 71 68 67 66 65 64 63 61 59 59 59 58 59 58
68 70 68 63 61 61 62 63 65 66 66 67 64 63 64 64 69 72 70 70 70 69 69 69 69 69 68 67 66 65 65 66 68 73 73 71 69 70 70 71 73 74 73 72 71 71 71 70 71 71 70 70 69 69 69 69 68 68 69 70 70 70 69 69 67 67 70 75 70 70 70 71 69 69 69 68 67 65 63 61 60 58 58 58 58
68 69 70 70 67 62 61 62 63 65 66 64 62 61 62 63 64 69 70 70 69 69 69 69 69 69 69 68 66 66 63 72 71 69 73 72 70 67 68 70 70 70 68 69 71 72 72 72 71 71 71 71 70 70 70 69 69 68 67 68 69 68 68 67 68 68 69 74 70 69 69 71 74 73 73 73 70 68 67 63 61 59 58 58 57
70 70 70 70 70 71 69 65 64 64 65 64 60 59 60 61 62 65 69 69 70 69 69 68 69 69 69 68 67 66 66 66 68 70 71 71 70 70 69 68 68 70 70 66 66 67 71 71 71 70 71 71 71 71 72 71 71 71 70 70 69 69 69 69 69 69 70 75 71 71 70 70 72 72 72 72 73 72 70 65 61 59 58 58 57
72 71 70 69 70 71 71 72 70 67 66 63 60 58 57 58 60 63 68 69 69 69 69 68 68 68 69 69 69 67 66 66 66 67 70 70 70 70 69 68 68 68 68 68 68 67 66 66 67 67 66 67 69 69 69 71 72 72 71 70 70 71 72 71 71 72 73 74 73 71 70 70 70 69 70 70 70 69 68 64 61 59 58 57 57
73 73 73 72 71 70 71 70 70 70 70 65 60 57 56 56 59 65 67 68 68 68 68 68 67 68 68 68 69 68 68 68 69 67 68 71 71 70 69 68 68 68 68 70 66 67 68 66 65 64 63 63 63 64 66 66 68 70 71 72 72 72 71 71 70 71 71 73 73 71 70 70 70 69 69 69 70 68 62 61 60 60 59 58 57
74 73 73 72 72 72 72 71 71 70 70 67 64 56 54 55 57 63 66 67 68 68 66 66 66 66 68 69 69 68 68 68 68 63 64 68 68 70 71 71 70 69 69 69 66 63 64 63 62 63 62 61 61 59 59 61 65 66 68 68 69 72 72 71 71 71 71 72 73 72 71 70 70 69 68 69 68 67 62 59 59 59 59 57 56
73 73 73 73 73 72 72 72 71 70 70 68 62 59 56 53 57 61 64 66 67 68 67 66 66 66 67 71 72 68 68 69 66 63 63 66 67 66 66 67 69 70 71 72 72 71 64 62 62 62 62 62 61 61 61 61 61 64 66 64 64 66 68 70 69 69 71 71 72 72 69 68 66 67 66 67 68 67 63 60 58 58 58 56 55
73 73 74 73 73 73 72 72 73 72 71 68 63 61 59 57 58 60 63 64 65 66 67 67 67 68 68 72 73 71 69 67 62 62 62 66 68 68 67 66 66 65 65 65 66 66 67 68 69 69 68 67 67 65 65 63 64 68 66 65 65 65 64 65 66 67 67 67 69 71 69 69 68 68 66 63 62 65 66 62 58 56 56 57 56